Charlevoix, MI

11:07 PM EDT on September 25, 2017 (GMT -0400)
Charlevoix Municipal

Weather History for KCVX - September, 2012

Change the Weather History Date:

Saturday, September 1, 2012

  Actual Average Record
Temperature  
Mean Temperature 68 °F -  
Max Temperature 77 °F 81 °F 89 °F (2008)
Min Temperature 58 °F 62 °F 46 °F (2017)
Cooling Degree Days 2    
Growing Degree Days 18 (Base 50)    
Moisture  
Dew Point 57 °F    
Average Humidity 64    
Maximum Humidity 94    
Minimum Humidity 44    
Precipitation  
Precipitation 0.00 in - - ()
Sea Level Pressure  
Sea Level Pressure 30.17 in    
Wind  
Wind Speed 7 mph (NNE)    
Max Wind Speed 15 mph    
Max Gust Speed 22 mph    
Visibility 10 miles    
Events      
Averages and records for this station are not official NWS values.
T = Trace of Precipitation, MM = Missing Value Source: NWS Daily Summary

Daily Weather History Graph

Daily Weather History Graph

Search for Another Location

Airport or City:

Trip Planner

Search our weather history database for the weather conditions in past years. The results will help you decide how hot, cold, wet, or windy it might be!

Date:

Astronomy

Sep. 01, 2012 Rise Set
Actual Time 7:03 AM EDT 8:17 PM EDT
Civil Twilight 6:32 AM EDT 8:47 PM EDT
Nautical Twilight 5:56 AM EDT 9:24 PM EDT
Astronomical Twilight 5:17 AM EDT 10:03 PM EDT
Moon 8:26 PM EDT (9/1) 8:16 AM EDT (9/1)
Length of Visible Light 14h 15m
Length of Day
13h 14m
Full, 99% of the Moon is Illuminated
Sep 1
Full
Sep 8
Last Quarter
Sep 15
New
Sep 22
First Quarter
Sep 29
Full

Hourly Weather History & Observations

Time (EDT) Temp. Dew Point Humidity Pressure Visibility Wind Dir Wind Speed Gust Speed Precip Events Conditions
12:14 AM 68.4 °F 55.4 °F 63% 30.16 in 10.0 mi North 5.8 mph - N/A   Clear
12:34 AM 68.7 °F 54.1 °F 60% 30.15 in 10.0 mi North 6.9 mph - N/A   Clear
1:14 AM 68.4 °F 55.4 °F 63% 30.15 in 10.0 mi North 4.6 mph - N/A   Clear
1:34 AM 68.4 °F 55.2 °F 63% 30.16 in 10.0 mi North 6.9 mph - N/A   Clear
1:54 AM 68.2 °F 55.6 °F 64% 30.16 in 10.0 mi North 6.9 mph - N/A   Clear
2:14 AM 68.4 °F 56.8 °F 67% 30.15 in 10.0 mi NW 4.6 mph - N/A   Clear
2:34 AM 67.5 °F 57.2 °F 70% 30.16 in 10.0 mi NW 5.8 mph - N/A   Clear
2:55 AM 67.5 °F 57.2 °F 70% 30.17 in 10.0 mi North 5.8 mph - N/A   Clear
3:14 AM 67.6 °F 57.6 °F 70% 30.17 in 10.0 mi North 5.8 mph - N/A   Clear
3:34 AM 68.2 °F 57.6 °F 69% 30.17 in 10.0 mi North 8.1 mph - N/A   Clear
3:54 AM 68.0 °F 57.2 °F 68% 30.17 in 10.0 mi NNE 8.1 mph - N/A   Clear
4:14 AM 67.5 °F 57.7 °F 71% 30.18 in 10.0 mi NNE 4.6 mph - N/A   Clear
4:34 AM 66.4 °F 58.6 °F 76% 30.17 in 10.0 mi North 4.6 mph - N/A   Clear
4:54 AM 66.2 °F 59.2 °F 78% 30.17 in 10.0 mi NNE 5.8 mph - N/A   Clear
5:14 AM 65.1 °F 58.5 °F 79% 30.18 in 10.0 mi Calm Calm - N/A   Clear
5:34 AM 64.4 °F 58.3 °F 80% 30.18 in 10.0 mi NNE 4.6 mph - N/A   Clear
5:54 AM 64.0 °F 58.3 °F 82% 30.19 in 10.0 mi Calm Calm - N/A   Clear
6:14 AM 60.4 °F 58.1 °F 92% 30.19 in 10.0 mi SSE 3.5 mph - N/A   Clear
6:34 AM 60.3 °F 57.6 °F 91% 30.19 in 10.0 mi Calm Calm - N/A   Clear
6:54 AM 59.5 °F 57.6 °F 93% 30.20 in 10.0 mi Calm Calm - N/A   Clear
7:14 AM 58.1 °F 56.5 °F 94% 30.20 in 10.0 mi Calm Calm - N/A   Clear
7:34 AM 58.1 °F 56.5 °F 94% 30.20 in 10.0 mi Calm Calm - N/A   Clear
7:54 AM 59.2 °F 57.4 °F 94% 30.21 in 10.0 mi Calm Calm - N/A   Clear
8:14 AM 64.4 °F 59.0 °F 83% 30.21 in 10.0 mi ENE 4.6 mph - N/A   Clear
8:34 AM 65.3 °F 58.3 °F 78% 30.21 in 10.0 mi ENE 5.8 mph - N/A   Clear
8:54 AM 66.9 °F 57.7 °F 72% 30.21 in 10.0 mi ENE 6.9 mph - N/A   Clear
9:14 AM 67.6 °F 57.7 °F 71% 30.22 in 10.0 mi East 6.9 mph - N/A   Clear
9:34 AM 68.7 °F 57.6 °F 67% 30.22 in 10.0 mi ENE 6.9 mph - N/A   Clear
9:54 AM 70.2 °F 57.6 °F 64% 30.22 in 10.0 mi ENE 5.8 mph - N/A   Clear
10:14 AM 71.8 °F 57.6 °F 61% 30.22 in 10.0 mi ENE 10.4 mph - N/A   Clear
10:34 AM 72.9 °F 57.0 °F 57% 30.22 in 10.0 mi ENE 9.2 mph - N/A   Clear
10:55 AM 74.5 °F 56.1 °F 53% 30.21 in 10.0 mi ENE 8.1 mph - N/A   Clear
11:14 AM 75.9 °F 54.9 °F 48% 30.20 in 10.0 mi NE 9.2 mph - N/A   Clear
11:34 AM 76.5 °F 54.1 °F 46% 30.20 in 10.0 mi ENE 11.5 mph 19.6 mph N/A   Clear
11:54 AM 76.8 °F 54.7 °F 46% 30.21 in 10.0 mi ENE 6.9 mph - N/A   Clear
12:14 PM 77.9 °F 54.1 °F 44% 30.21 in 10.0 mi ENE 9.2 mph 18.4 mph N/A   Clear
12:35 PM 76.1 °F 58.1 °F 54% 30.20 in 10.0 mi North 11.5 mph 16.1 mph N/A   Clear
12:54 PM 76.3 °F 56.3 °F 50% 30.20 in 10.0 mi North 11.5 mph - N/A   Clear
1:14 PM 76.3 °F 55.0 °F 48% 30.20 in 10.0 mi North 13.8 mph - N/A   Clear
1:35 PM 76.1 °F 55.4 °F 49% 30.20 in 10.0 mi North 15.0 mph 19.6 mph N/A   Clear
1:54 PM 76.1 °F 55.4 °F 49% 30.19 in 10.0 mi North 13.8 mph 21.9 mph N/A   Clear
2:14 PM 76.1 °F 55.8 °F 49% 30.19 in 10.0 mi North 13.8 mph - N/A   Clear
2:34 PM 75.9 °F 55.4 °F 49% 30.19 in 10.0 mi North 13.8 mph 19.6 mph N/A   Clear
2:54 PM 76.1 °F 55.6 °F 49% 30.18 in 10.0 mi North 15.0 mph 20.7 mph N/A   Clear
3:14 PM 75.6 °F 56.7 °F 52% 30.18 in 10.0 mi North 13.8 mph - N/A   Clear
3:34 PM 75.6 °F 56.7 °F 52% 30.17 in 10.0 mi North 13.8 mph 18.4 mph N/A   Clear
3:54 PM 76.1 °F 58.1 °F 54% 30.17 in 10.0 mi North 11.5 mph 19.6 mph N/A   Clear
4:14 PM 75.6 °F 58.5 °F 55% 30.17 in 10.0 mi North 10.4 mph - N/A   Clear
4:34 PM 75.9 °F 57.7 °F 53% 30.16 in 10.0 mi North 10.4 mph - N/A   Clear
4:54 PM 75.2 °F 57.7 °F 54% 30.15 in 10.0 mi North 12.7 mph 17.3 mph N/A   Clear
5:14 PM 75.0 °F 58.1 °F 56% 30.15 in 10.0 mi North 13.8 mph - N/A   Clear
5:34 PM 74.5 °F 58.3 °F 57% 30.15 in 10.0 mi North 12.7 mph - N/A   Clear
5:54 PM 74.5 °F 57.6 °F 55% 30.14 in 10.0 mi North 11.5 mph 20.7 mph N/A   Clear
6:14 PM 74.8 °F 57.7 °F 55% 30.13 in 10.0 mi North 10.4 mph 16.1 mph N/A   Clear
6:34 PM 74.3 °F 57.6 °F 56% 30.13 in 10.0 mi North 10.4 mph 16.1 mph N/A   Clear
6:54 PM 73.8 °F 57.9 °F 58% 30.13 in 10.0 mi North 10.4 mph 16.1 mph N/A   Clear
7:14 PM 73.0 °F 57.9 °F 59% 30.12 in 10.0 mi North 10.4 mph - N/A   Clear
7:34 PM 72.5 °F 57.4 °F 59% 30.12 in 10.0 mi NNE 10.4 mph - N/A   Clear
7:54 PM 72.5 °F 57.4 °F 59% 30.12 in 10.0 mi North 8.1 mph - N/A   Clear
8:14 PM 72.1 °F 55.8 °F 56% 30.12 in 10.0 mi NNE 6.9 mph - N/A   Clear
8:34 PM 71.6 °F 57.4 °F 61% 30.13 in 10.0 mi NE 8.1 mph - N/A   Clear
8:54 PM 70.9 °F 57.2 °F 62% 30.13 in 10.0 mi NE 5.8 mph - N/A   Clear
9:14 PM 70.3 °F 56.3 °F 61% 30.14 in 10.0 mi NE 6.9 mph - N/A   Clear
9:34 PM 69.6 °F 57.2 °F 65% 30.14 in 10.0 mi ENE 4.6 mph - N/A   Clear
9:54 PM 68.9 °F 57.4 °F 67% 30.14 in 10.0 mi East 6.9 mph - N/A   Clear
10:14 PM 68.9 °F 56.3 °F 64% 30.14 in 10.0 mi ENE 5.8 mph - N/A   Clear
10:34 PM 69.3 °F 56.5 °F 64% 30.15 in 10.0 mi East 4.6 mph - N/A   Clear
10:54 PM 68.7 °F 57.0 °F 66% 30.15 in 10.0 mi East 3.5 mph - N/A   Clear
11:14 PM 67.3 °F 56.7 °F 69% 30.15 in 10.0 mi East 3.5 mph - N/A   Clear
11:34 PM 65.7 °F 56.3 °F 72% 30.15 in 10.0 mi Calm Calm - N/A   Clear
11:54 PM 65.7 °F 57.0 °F 74% 30.15 in 7.0 mi Calm Calm - N/A   Clear